Bradford, PA

12:16 AM EST on November 18, 2017 (GMT -0500)
Bradford Regional

Weather History for KBFD - March, 2014

Change the Weather History Date:

Monday, March 24, 2014

  Actual Average Record
Temperature  
Mean Temperature 14 °F 35 °F  
Max Temperature 22 °F 45 °F 69 °F (2016)
Min Temperature 5 °F 25 °F 5 °F (2014)
Degree Days  
Heating Degree Days 51 25  
Month to date heating degree days 927 697  
Since 1 July heating degree days 6593 6267  
Cooling Degree Days 0 0  
Month to date cooling degree days 0 0  
Year to date cooling degree days 0 0  
Moisture  
Dew Point 4 °F    
Average Humidity 59    
Maximum Humidity 76    
Minimum Humidity 41    
Precipitation  
Precipitation T in 0.12 in 0.69 in (1979)
Month to date precipitation 1.34 2.55  
Year to date precipitation 4.87 8.19  
Sea Level Pressure  
Sea Level Pressure 30.18 in    
Wind  
Wind Speed 7 mph (WNW)    
Max Wind Speed 16 mph    
Max Gust Speed 24 mph    
Visibility 8 miles    
Events Snow    
T = Trace of Precipitation, MM = Missing Value Source: NWS Daily Summary

Daily Weather History Graph

Daily Weather History Graph

Search for Another Location

Airport or City:

Trip Planner

Search our weather history database for the weather conditions in past years. The results will help you decide how hot, cold, wet, or windy it might be!

Date:

Astronomy

Mar. 24, 2014 Rise Set
Actual Time 7:11 AM EDT 7:31 PM EDT
Civil Twilight 6:43 AM EDT 7:59 PM EDT
Nautical Twilight 6:10 AM EDT 8:31 PM EDT
Astronomical Twilight 5:37 AM EDT 9:05 PM EDT
Moon 2:44 AM EDT (3/24) 12:49 PM EDT (3/24)
Length of Visible Light 13h 15m
Length of Day
12h 20m
Last Quarter, 43% of the Moon is Illuminated
Mar 24
Last Quarter
Mar 30
New
Apr 7
First Quarter
Apr 15
Full
Apr 22
Last Quarter

Hourly Weather History & Observations

Time (EDT) Temp. Windchill Dew Point Humidity Pressure Visibility Wind Dir Wind Speed Gust Speed Precip Events Conditions
12:16 AM 12.9 °F -2.2 °F 5.0 °F 71% 30.15 in 1.8 mi WNW 13.8 mph - 0.00 in Snow Light Snow
12:22 AM 12.9 °F -1.6 °F 5.0 °F 71% 30.15 in 3.0 mi WNW 12.7 mph - 0.00 in Snow Light Snow
12:34 AM 12.9 °F -1.6 °F 5.0 °F 71% 30.16 in 3.0 mi NW 12.7 mph - 0.00 in Snow Light Snow
12:44 AM 12.9 °F -1.6 °F 3.9 °F 67% 30.15 in 9.0 mi NNW 12.7 mph 20.7 mph 0.00 in Snow Light Snow
12:53 AM 12.0 °F -2.7 °F 3.0 °F 67% 30.26 in 10.0 mi WNW 12.7 mph 21.9 mph 0.00 in   Overcast
1:53 AM 10.9 °F -2.6 °F -0.0 °F 61% 30.27 in 10.0 mi NW 10.4 mph - N/A   Clear
2:53 AM 10.0 °F -0.9 °F -0.0 °F 64% 30.26 in 10.0 mi WNW 6.9 mph - N/A   Clear
3:53 AM 9.0 °F -0.9 °F -0.0 °F 67% 30.26 in 10.0 mi WNW 5.8 mph - N/A   Partly Cloudy
4:53 AM 9.0 °F -4.2 °F -0.0 °F 67% 30.26 in 10.0 mi WNW 9.2 mph - N/A   Partly Cloudy
5:53 AM 9.0 °F -0.9 °F 1.0 °F 70% 30.26 in 10.0 mi WNW 5.8 mph - N/A   Mostly Cloudy
6:53 AM 6.1 °F - -0.0 °F 76% 30.27 in 10.0 mi Calm Calm - N/A   Clear
7:53 AM 9.0 °F - 1.0 °F 70% 30.28 in 10.0 mi Calm Calm - N/A   Clear
8:53 AM 10.9 °F 0.2 °F 1.9 °F 67% 30.27 in 10.0 mi NNW 6.9 mph - N/A   Partly Cloudy
9:12 AM 12.0 °F -0.4 °F 3.0 °F 67% 30.16 in 10.0 mi NW 9.2 mph - N/A   Mostly Cloudy
9:53 AM 12.9 °F 1.6 °F 1.9 °F 62% 30.28 in 10.0 mi WNW 8.1 mph - N/A   Overcast
10:15 AM 15.1 °F 1.1 °F 1.9 °F 56% 30.17 in 10.0 mi NW 12.7 mph 20.7 mph N/A   Mostly Cloudy
10:53 AM 15.1 °F 1.8 °F 1.0 °F 54% 30.28 in 10.0 mi NW 11.5 mph - N/A   Overcast
11:25 AM 15.1 °F 3.3 °F 3.0 °F 59% 30.16 in 2.5 mi NW 9.2 mph - 0.00 in Snow Light Snow
11:34 AM 16.0 °F 10.4 °F 1.0 °F 52% 30.15 in 9.0 mi Variable 3.5 mph - 0.00 in   Mostly Cloudy
11:53 AM 18.0 °F 3.6 °F 1.9 °F 50% 30.25 in 10.0 mi NW 15.0 mph 20.7 mph 0.00 in   Mostly Cloudy
12:53 PM 19.0 °F 6.8 °F 3.0 °F 50% 30.23 in 10.0 mi West 11.5 mph - N/A   Overcast
1:53 PM 19.9 °F 8.6 °F 3.0 °F 48% 30.21 in 10.0 mi WNW 10.4 mph 17.3 mph N/A   Overcast
2:53 PM 21.0 °F 10.6 °F 3.0 °F 46% 30.19 in 10.0 mi West 9.2 mph - N/A   Mostly Cloudy
3:53 PM 21.0 °F 9.3 °F 1.9 °F 44% 30.17 in 10.0 mi West 11.5 mph - N/A   Overcast
4:53 PM 21.9 °F 11.7 °F 3.0 °F 44% 30.15 in 10.0 mi West 9.2 mph - N/A   Overcast
5:53 PM 21.9 °F 14.5 °F 3.0 °F 44% 30.13 in 10.0 mi Variable 5.8 mph - N/A   Overcast
6:53 PM 21.0 °F 10.6 °F 3.9 °F 48% 30.13 in 10.0 mi SW 9.2 mph - N/A   Overcast
7:53 PM 19.9 °F 13.4 °F 7.0 °F 57% 30.12 in 7.0 mi West 4.6 mph - 0.00 in Snow Light Snow
8:53 PM 19.9 °F 12.1 °F 10.9 °F 68% 30.13 in 10.0 mi WNW 5.8 mph - 0.00 in   Overcast
9:53 PM 19.9 °F 11.1 °F 10.9 °F 68% 30.12 in 10.0 mi WNW 6.9 mph - N/A   Overcast
10:29 PM 19.0 °F 9.0 °F 12.0 °F 74% 30.02 in 2.5 mi WNW 8.1 mph - 0.00 in Snow Light Snow
10:45 PM 19.0 °F 9.0 °F 12.9 °F 77% 30.01 in 1.5 mi WNW 8.1 mph - 0.00 in Snow Light Snow
10:53 PM 18.0 °F 8.7 °F 12.0 °F 78% 30.12 in 3.0 mi WNW 6.9 mph - 0.00 in Snow Light Snow
11:04 PM 17.1 °F 10.0 °F 12.0 °F 81% 30.01 in 9.0 mi WNW 4.6 mph - 0.00 in   Mostly Cloudy
11:53 PM 17.1 °F - 10.0 °F 74% 30.10 in 10.0 mi Calm Calm - 0.00 in   Mostly Cloudy